[[{"header":{"parameterUnit":"m.s-1","parameterCategory":1,"la1":30.2991,"la2":30.254,"lo1":-89.0895,"lo2":-89.0444,"dx":0.0017,"dy":0.0017,"nx":28,"ny":28,"refTime":"2022-12-07T03:00:00:Z","depth":0,"parameterNumber":2,"parameterNumberName":"U-component_of_WINDS"},"data":[0,0,0,0,0,0,0,0,0,0,0,0,0,0,0,0,0,0,0,0,0,0,0,0,0,0,0,0,0,0,0,0,0,0,0,0,0,0,0,0,0,0,0,0,0,0,0,0,0,0,0,0,0,0,0,0,0,0,-0.6737,-0.6737,0,-0.6725,-0.6725,-0.6725,-0.6729,-0.6729,-0.673,-0.673,-0.6716,-0.6716,-0.6715,0,0,0,0,0,0,0,0,0,0,0,0,0,-0.6764,-0.6764,-0.6738,-0.6737,-0.6737,-0.6725,-0.6725,-0.6725,-0.6729,-0.6729,-0.673,-0.673,-0.6717,-0.6716,-0.6715,0,0,0,0,0,0,0,0,0,0,0,0,0,-0.6752,-0.6763,-0.6738,-0.6738,-0.6738,-0.6725,-0.6725,-0.6725,-0.6729,-0.6729,-0.673,-0.673,-0.6717,-0.6716,-0.6715,-0.6701,0,0,-0.6712,-0.6712,0,0,0,0,0,0,0,0,-0.6753,-0.6751,-0.6738,-0.6738,-0.6738,-0.6729,-0.673,-0.6717,-0.6729,-0.6732,-0.673,-0.673,-0.672,-0.6719,-0.6716,-0.6701,-0.67,-0.6712,-0.6712,-0.6711,-0.6711,0,0,0,0,0,0,0,-0.6754,-0.6752,-0.6733,-0.6738,-0.6738,-0.6738,-0.6737,-0.6727,-0.6724,-0.6732,-0.6732,-0.6731,-0.672,-0.6717,-0.6716,-0.67,-0.6712,-0.6711,-0.6711,-0.671,-0.6673,-0.6672,0,0,0,0,0,0,-0.6755,-0.6753,-0.6733,-0.6732,-0.6746,-0.6738,-0.6736,-0.6731,-0.6724,-0.6724,-0.673,-0.6731,-0.6718,-0.6717,-0.6715,-0.6698,-0.6711,-0.671,-0.671,-0.6673,-0.6673,-0.6672,0,0,0,0,0,0,-0.6755,-0.6753,-0.6734,-0.6742,-0.674,-0.6737,-0.6731,-0.6731,-0.6727,-0.6723,-0.6722,-0.6727,-0.6718,-0.6716,-0.6705,-0.6698,-0.671,-0.6709,-0.6674,-0.6673,-0.6673,-0.6665,0,0,0,0,0,0,-0.6756,-0.6753,-0.6748,-0.6742,-0.674,-0.6724,-0.6731,-0.673,-0.6726,-0.6727,-0.672,-0.6719,-0.6719,-0.6706,-0.6704,-0.6697,-0.6708,-0.6674,-0.6674,-0.6673,-0.6666,-0.6664,-0.6663,0,0,0,0,0,-0.6757,-0.6746,-0.6748,-0.6745,-0.6733,-0.6723,-0.6722,-0.6721,-0.6725,-0.672,-0.6717,-0.672,-0.6699,-0.6705,-0.6702,-0.6695,-0.6675,-0.6674,-0.6673,-0.6667,-0.6664,-0.6663,0,0,0,0,0,0,-0.6751,-0.6745,-0.6747,-0.6734,-0.6729,-0.6724,-0.6717,-0.6719,-0.6712,-0.6713,-0.6712,-0.6711,-0.6699,-0.6696,-0.6702,-0.6681,-0.6688,-0.6686,-0.6684,-0.6682,-0.668,-0.6681,-0.6708,0,0,0,0,0,-0.6748,-0.6741,-0.6736,-0.6725,-0.6723,-0.672,-0.6716,-0.6716,-0.6711,-0.6709,-0.6705,-0.6699,-0.6692,-0.6687,-0.6679,-0.6666,-0.6664,-0.6659,-0.6658,-0.6657,-0.6655,-0.6647,-0.6645,-0.6669,-0.6669,-0.6669,0,0,-0.6742,-0.6738,-0.6734,-0.6724,-0.672,-0.6712,-0.6719,-0.671,-0.6704,-0.6707,-0.6696,-0.6693,-0.6687,-0.6674,-0.6668,-0.6671,-0.6648,-0.6655,-0.6654,-0.6653,-0.6646,-0.6644,-0.6642,-0.6668,-0.6668,-0.6669,0,0,-0.6727,-0.6724,-0.6714,-0.671,-0.6704,-0.6703,-0.67,-0.6695,-0.6693,-0.6682,-0.6684,-0.6677,-0.6664,-0.666,-0.6656,-0.6639,-0.6641,-0.6637,-0.6629,-0.6621,-0.6619,-0.6618,-0.6611,-0.6609,-0.6636,-0.6636,-0.6636,0,-0.6721,-0.6709,-0.6709,-0.67,-0.6696,-0.6699,-0.6689,-0.6685,-0.6677,-0.6674,-0.6677,-0.6661,-0.6657,-0.6643,-0.6639,-0.6636,-0.6633,-0.6637,-0.662,-0.6618,-0.6616,-0.661,-0.6608,-0.6635,-0.6635,-0.6635,-0.6635,0,-0.6701,-0.6693,-0.6686,-0.6678,-0.6673,-0.6663,-0.6662,-0.6657,-0.6657,-0.6656,-0.6644,-0.664,-0.6632,-0.6628,-0.6629,-0.6615,-0.6617,-0.662,-0.6626,-0.6614,-0.6608,-0.6606,-0.6634,-0.6635,-0.6635,-0.6635,0,0,-0.6681,-0.6674,-0.6671,-0.6668,-0.6662,-0.6655,-0.6646,-0.6638,-0.6634,-0.6628,-0.662,-0.6609,-0.6613,-0.6608,-0.6608,-0.6602,-0.6589,-0.6606,-0.6606,-0.6602,-0.6572,-0.6569,-0.6567,-0.659,-0.659,-0.6589,-0.6573,0,-0.6666,-0.665,-0.6649,-0.6635,-0.6627,-0.663,-0.6622,-0.6617,-0.6615,-0.6608,-0.6606,-0.6598,-0.6603,-0.66,-0.6594,-0.6591,-0.6582,-0.6593,-0.6582,-0.6582,-0.6583,-0.6564,-0.6561,-0.6545,-0.6571,-0.657,-0.657,0,-0.6645,-0.6639,-0.6623,-0.6618,-0.6615,-0.6608,-0.6601,-0.6594,-0.6589,-0.6588,-0.6583,-0.6584,-0.6575,-0.6582,-0.6568,-0.6575,-0.6571,-0.6569,-0.6569,-0.6567,-0.6575,-0.6562,-0.6541,-0.6538,-0.6567,-0.6567,-0.6567,0,-0.6632,-0.662,-0.6609,-0.6606,-0.66,-0.6594,-0.6592,-0.6587,-0.6582,-0.6576,-0.6573,-0.6566,-0.6562,-0.6556,-0.6555,-0.656,-0.6542,-0.6548,-0.654,-0.654,-0.6536,-0.6536,-0.6513,-0.6534,-0.6534,-0.6534,-0.6534,0,-0.6614,-0.6604,-0.6603,-0.6596,-0.6585,-0.6585,-0.6574,-0.6572,-0.6568,-0.656,-0.6563,-0.6556,-0.6555,-0.6548,-0.6547,-0.6536,-0.6534,-0.6533,-0.6533,-0.6533,-0.6533,-0.6529,-0.653,-0.6533,-0.6533,-0.6534,-0.6534,0,-0.6598,-0.6596,-0.6584,-0.6579,-0.6578,-0.657,-0.6566,-0.6559,-0.6558,-0.6549,-0.6547,-0.6544,-0.6536,-0.6534,-0.6525,-0.6524,-0.6511,-0.6512,-0.6513,-0.6513,-0.6504,-0.6505,-0.6478,-0.6475,-0.6498,-0.6498,-0.6498,0,-0.6586,-0.6579,-0.6573,-0.6568,-0.6565,-0.6558,-0.6553,-0.6553,-0.6548,-0.6541,-0.6535,-0.6527,-0.6521,-0.6507,-0.6505,-0.6497,-0.6498,-0.6489,-0.6497,-0.6497,-0.6497,-0.6498,-0.6497,-0.6487,-0.6487,-0.6487,-0.6487,0,-0.6566,-0.6565,-0.6559,-0.6551,-0.6546,-0.654,-0.6535,-0.6531,-0.653,-0.6524,-0.6516,-0.6511,-0.6501,-0.6493,-0.6486,-0.6483,-0.6484,-0.6485,-0.6482,-0.6482,-0.6482,-0.6481,-0.6508,-0.6485,-0.6485,-0.6485,-0.6485,-0.6486,-0.6551,-0.6545,-0.6539,-0.6532,-0.6528,-0.6523,-0.6516,-0.6514,-0.6507,-0.6499,-0.6499,-0.649,-0.6485,-0.6475,-0.6472,-0.6465,-0.6467,-0.6464,-0.6463,-0.6462,-0.6461,-0.6484,-0.6463,-0.6463,-0.6463,-0.6463,-0.6463,0,-0.6531,-0.6527,-0.652,-0.6513,-0.6507,-0.6509,-0.6504,-0.6498,-0.649,-0.6485,-0.6479,-0.6469,-0.6461,-0.6458,-0.6451,-0.6445,-0.6446,-0.6443,-0.6443,-0.6443,-0.6459,-0.6462,-0.6443,-0.6443,-0.6443,-0.6443,-0.6443,-0.6443,-0.6519,-0.6508,-0.6507,-0.6494,-0.6491,-0.6482,-0.6478,-0.6474,-0.647,-0.6459,-0.6453,-0.6451,-0.6446,-0.6438,-0.6431,-0.6431,-0.6427,-0.6424,-0.6424,-0.6439,-0.6441,-0.6443,-0.6446,-0.6424,-0.6424,-0.6408,-0.6408,-0.6407]},{"header":{"parameterUnit":"m.s-1","parameterCategory":1,"la1":30.2991,"la2":30.254,"lo1":-89.0895,"lo2":-89.0444,"dx":0.0017,"dy":0.0017,"nx":28,"ny":28,"refTime":"2022-12-07T03:00:00:Z","depth":0,"parameterNumber":3,"parameterNumberName":"V-component_of_WINDS"},"data":[0,0,0,0,0,0,0,0,0,0,0,0,0,0,0,0,0,0,0,0,0,0,0,0,0,0,0,0,0,0,0,0,0,0,0,0,0,0,0,0,0,0,0,0,0,0,0,0,0,0,0,0,0,0,0,0,0,0,3.5217,3.5217,0,3.5252,3.5253,3.5253,3.523,3.5228,3.5227,3.5226,3.5259,3.5261,3.5263,0,0,0,0,0,0,0,0,0,0,0,0,0,3.5125,3.5127,3.5217,3.5217,3.5218,3.5252,3.5253,3.5253,3.523,3.5228,3.5227,3.5226,3.5259,3.5261,3.5263,0,0,0,0,0,0,0,0,0,0,0,0,0,3.5163,3.5128,3.5217,3.521,3.521,3.5252,3.5253,3.5253,3.523,3.5228,3.5227,3.5225,3.5258,3.5261,3.5263,3.5313,0,0,3.5272,3.5273,0,0,0,0,0,0,0,0,3.5161,3.5167,3.5211,3.5211,3.521,3.5235,3.5233,3.5273,3.523,3.5222,3.5226,3.5224,3.5252,3.5255,3.5265,3.5314,3.5316,3.5272,3.5274,3.5275,3.5276,0,0,0,0,0,0,0,3.5158,3.5165,3.5231,3.5211,3.5211,3.5204,3.5208,3.524,3.5246,3.5223,3.5221,3.5226,3.5252,3.5263,3.5266,3.5316,3.5272,3.5275,3.5276,3.5277,3.5409,3.5411,0,0,0,0,0,0,3.5157,3.5163,3.523,3.5232,3.5181,3.5207,3.5211,3.5229,3.5245,3.5246,3.5227,3.5225,3.5259,3.5263,3.5267,3.5328,3.5275,3.5278,3.5279,3.5407,3.541,3.5412,0,0,0,0,0,0,3.5155,3.5163,3.5228,3.5197,3.5205,3.5211,3.523,3.523,3.5241,3.5249,3.5249,3.5238,3.5258,3.5263,3.5302,3.5329,3.5279,3.5282,3.5405,3.5408,3.5411,3.5449,0,0,0,0,0,0,3.5152,3.5163,3.5182,3.5198,3.5207,3.5264,3.5232,3.5232,3.5247,3.5244,3.5259,3.526,3.5257,3.5298,3.5305,3.5332,3.5284,3.5403,3.5407,3.541,3.5445,3.5453,3.5459,0,0,0,0,0,3.5149,3.519,3.5183,3.5191,3.5231,3.5265,3.527,3.5267,3.5249,3.5268,3.5273,3.5259,3.5324,3.5302,3.531,3.5338,3.5401,3.5406,3.5409,3.5442,3.5451,3.5459,0,0,0,0,0,0,3.5176,3.5192,3.5185,3.5232,3.5248,3.5261,3.5286,3.5277,3.5297,3.5293,3.5287,3.5291,3.5332,3.5338,3.5314,3.5387,3.536,3.5366,3.5382,3.5391,3.5397,3.5396,3.5286,0,0,0,0,0,3.5188,3.5215,3.5227,3.5268,3.5276,3.528,3.5294,3.5291,3.5306,3.5313,3.532,3.5335,3.5359,3.5375,3.5397,3.5445,3.5449,3.5468,3.5475,3.548,3.5486,3.5514,3.5523,3.5425,3.5425,3.5425,0,0,3.5212,3.5224,3.5241,3.5274,3.5285,3.5314,3.5285,3.5316,3.5337,3.5317,3.5355,3.5361,3.5377,3.5422,3.5442,3.5428,3.5514,3.5486,3.549,3.5493,3.5519,3.5528,3.5537,3.5428,3.5427,3.5427,0,0,3.527,3.5282,3.5318,3.5331,3.535,3.5352,3.5361,3.5376,3.538,3.5419,3.5405,3.5428,3.5469,3.5482,3.5494,3.5558,3.5546,3.5565,3.5601,3.5628,3.5636,3.5643,3.5668,3.5676,3.557,3.557,3.557,0,3.5298,3.5341,3.5337,3.537,3.5385,3.5369,3.5406,3.5418,3.5442,3.5453,3.5437,3.549,3.5499,3.5547,3.5563,3.5573,3.5583,3.5564,3.5635,3.5642,3.5648,3.5672,3.5681,3.5573,3.5572,3.5572,3.5572,0,3.5374,3.5404,3.5431,3.5458,3.5475,3.5509,3.551,3.5528,3.5523,3.5527,3.5567,3.5577,3.5603,3.5613,3.5608,3.5661,3.5653,3.5636,3.5609,3.566,3.5682,3.5691,3.5576,3.5575,3.5574,3.5574,0,0,3.5452,3.5477,3.5487,3.5499,3.5519,3.5542,3.5575,3.5601,3.5617,3.5634,3.5663,3.5698,3.5684,3.5697,3.5692,3.5716,3.5769,3.5697,3.5697,3.5712,3.583,3.5844,3.5855,3.576,3.5762,3.5763,3.583,0,3.5513,3.5574,3.5572,3.5628,3.5656,3.5642,3.5671,3.5686,3.569,3.5714,3.5717,3.5744,3.5722,3.573,3.5752,3.5758,3.5793,3.5752,3.5787,3.5788,3.5786,3.5866,3.588,3.5943,3.5838,3.5839,3.584,0,3.5593,3.5616,3.5675,3.5693,3.5704,3.5731,3.5755,3.5778,3.5795,3.5796,3.5812,3.5803,3.5837,3.5807,3.5854,3.5826,3.584,3.5844,3.5847,3.5852,3.5819,3.5875,3.5962,3.5973,3.5854,3.5853,3.5852,0,3.5647,3.5691,3.5733,3.5744,3.5764,3.5784,3.5793,3.5808,3.5824,3.5845,3.5855,3.5879,3.5892,3.591,3.5908,3.5887,3.5956,3.5926,3.5959,3.5959,3.5975,3.5975,3.6069,3.5981,3.5981,3.598,3.598,0,3.5717,3.5755,3.5758,3.5784,3.5825,3.5822,3.5863,3.587,3.5884,3.591,3.5898,3.5923,3.5918,3.5943,3.5941,3.5981,3.5986,3.5988,3.5988,3.5991,3.5991,3.6001,3.5998,3.5983,3.5982,3.5982,3.5981,0,3.5785,3.5788,3.5834,3.585,3.5855,3.5885,3.5898,3.5922,3.5925,3.5959,3.5967,3.5972,3.6,3.6,3.6032,3.6031,3.608,3.6074,3.6076,3.6075,3.6109,3.6107,3.6214,3.6229,3.6129,3.613,3.6131,0,3.5831,3.586,3.588,3.5898,3.5909,3.5937,3.5954,3.5951,3.597,3.5991,3.6013,3.6041,3.6063,3.611,3.6115,3.614,3.6135,3.6171,3.6139,3.6141,3.6138,3.6138,3.6141,3.6178,3.6179,3.618,3.6181,0,3.5913,3.5913,3.5939,3.5966,3.5988,3.6008,3.6027,3.6042,3.6041,3.6062,3.6092,3.611,3.6144,3.6172,3.6196,3.6204,3.6193,3.6191,3.62,3.6204,3.6205,3.6208,3.6095,3.6189,3.6188,3.6187,3.6187,3.6187,3.5972,3.5998,3.6017,3.6047,3.6061,3.6079,3.6104,3.6111,3.6136,3.6165,3.6161,3.6195,3.6211,3.6242,3.6252,3.6278,3.6266,3.6279,3.6282,3.6286,3.6291,3.62,3.6282,3.6282,3.6282,3.6282,3.6282,0,3.6056,3.6067,3.6095,3.6123,3.6146,3.6134,3.6155,3.6175,3.6205,3.6222,3.6245,3.628,3.6307,3.6315,3.6341,3.6361,3.6356,3.6368,3.6367,3.637,3.63,3.629,3.6371,3.6371,3.6371,3.6371,3.6371,3.6371,3.6102,3.6146,3.6149,3.6199,3.621,3.6245,3.6258,3.6275,3.6288,3.6328,3.6352,3.6357,3.637,3.6397,3.6422,3.6423,3.6435,3.6449,3.6448,3.6383,3.6374,3.6366,3.6357,3.6451,3.6451,3.6517,3.6517,3.6518]}]]